Sturgeon Bay, WI

4:07 AM CDT on June 23, 2017 (GMT -0500)
Door County Cherryland

Weather History for KSUE - November, 2010

Change the Weather History Date:

Wednesday, November 17, 2010

  Actual Average Record
Temperature  
Mean Temperature 40 °F -  
Max Temperature 44 °F 42 °F 64 °F (1971)
Min Temperature 37 °F 31 °F 2 °F (1959)
Degree Days  
Heating Degree Days 24    
Moisture  
Dew Point 34 °F    
Average Humidity 78    
Maximum Humidity 100    
Minimum Humidity 57    
Precipitation  
Precipitation 0.00 in - - ()
Sea Level Pressure  
Sea Level Pressure 29.92 in    
Wind  
Wind Speed 10 mph (NNW)    
Max Wind Speed 16 mph    
Max Gust Speed 22 mph    
Visibility 7 miles    
Events      
Averages and records for this station are not official NWS values.
T = Trace of Precipitation, MM = Missing Value Source: NWS Daily Summary

Daily Weather History Graph

Daily Weather History Graph

Search for Another Location

Airport or City:

Trip Planner

Search our weather history database for the weather conditions in past years. The results will help you decide how hot, cold, wet, or windy it might be!

Date:

Astronomy

Nov. 17, 2010 Rise Set
Actual Time 6:49 AM CST 4:19 PM CST
Civil Twilight 6:17 AM CST 4:51 PM CST
Nautical Twilight 5:42 AM CST 5:26 PM CST
Astronomical Twilight 5:07 AM CST 6:01 PM CST
Moon 1:58 PM CST (11/17) 2:39 AM CST (11/17)
Length of Visible Light 10h 33m
Length of Day
9h 29m
Waxing Gibbous, 85% of the Moon is Illuminated
Nov 17
Waxing Gibbous
Nov 21
Full
Nov 28
Last Quarter
Dec 5
New
Dec 13
First Quarter

Hourly Weather History & Observations

Time (CST) Temp. Windchill Dew Point Humidity Pressure Visibility Wind Dir Wind Speed Gust Speed Precip Events Conditions
12:15 AM 44.6 °F 39.7 °F 39.2 °F 81% 29.70 in 10.0 mi North 9.2 mph - N/A   Overcast
12:35 AM 44.6 °F 39.7 °F 39.2 °F 81% 29.70 in 10.0 mi North 9.2 mph - N/A   Overcast
12:55 AM 44.6 °F 39.7 °F 42.8 °F 93% 29.71 in 2.5 mi North 9.2 mph - N/A   Overcast
1:15 AM 44.6 °F 40.2 °F 41.0 °F 87% 29.71 in 3.0 mi North 8.1 mph - N/A   Overcast
1:35 AM 44.6 °F 39.7 °F 42.8 °F 93% 29.72 in 2.5 mi North 9.2 mph - N/A   Overcast
1:55 AM 44.6 °F 40.2 °F 42.8 °F 93% 29.73 in 3.0 mi North 8.1 mph - N/A   Overcast
2:15 AM 42.8 °F 38.0 °F 42.8 °F 100% 29.73 in 2.0 mi North 8.1 mph - N/A   Overcast
2:35 AM 42.8 °F 38.0 °F 42.8 °F 100% 29.74 in 1.2 mi North 8.1 mph - N/A   Overcast
2:55 AM 42.8 °F 38.6 °F 41.0 °F 93% 29.74 in 1.8 mi North 6.9 mph - N/A   Overcast
3:15 AM 42.8 °F 38.0 °F 41.0 °F 93% 29.74 in 2.5 mi NNW 8.1 mph - N/A   Overcast
3:35 AM 42.8 °F 38.0 °F 39.2 °F 87% 29.75 in 3.0 mi North 8.1 mph - N/A   Overcast
3:55 AM 42.8 °F 38.0 °F 39.2 °F 87% 29.76 in 2.0 mi NNW 8.1 mph - N/A   Overcast
4:15 AM 42.8 °F 38.0 °F 39.2 °F 87% 29.77 in 3.0 mi NNW 8.1 mph - N/A   Overcast
4:35 AM 42.8 °F 38.6 °F 39.2 °F 87% 29.78 in 4.0 mi NNW 6.9 mph - N/A   Overcast
4:55 AM 42.8 °F 38.6 °F 39.2 °F 87% 29.79 in 4.0 mi NW 6.9 mph - N/A   Overcast
5:15 AM 42.8 °F 37.5 °F 39.2 °F 87% 29.79 in 4.0 mi NNW 9.2 mph - N/A   Overcast
5:35 AM 41.0 °F 36.4 °F 39.2 °F 93% 29.80 in 4.0 mi NNW 6.9 mph - N/A   Overcast
6:15 AM 41.0 °F 34.7 °F 37.4 °F 87% 29.81 in 4.0 mi NNW 10.4 mph - N/A   Overcast
6:35 AM 41.0 °F 34.7 °F 37.4 °F 87% 29.83 in 5.0 mi NNW 10.4 mph - N/A   Overcast
6:55 AM 39.2 °F 32.5 °F 37.4 °F 93% 29.84 in 5.0 mi North 10.4 mph - N/A   Overcast
7:15 AM 39.2 °F 31.6 °F 37.4 °F 93% 29.85 in 5.0 mi NNW 12.7 mph - N/A   Overcast
7:35 AM 39.2 °F 31.6 °F 35.6 °F 87% 29.87 in 5.0 mi NNW 12.7 mph - N/A   Overcast
7:55 AM 39.2 °F 31.6 °F 35.6 °F 87% 29.88 in 5.0 mi North 12.7 mph 17.3 mph N/A   Overcast
8:15 AM 37.4 °F 28.9 °F 35.6 °F 93% 29.90 in 5.0 mi NNW 13.8 mph - N/A   Overcast
8:35 AM 37.4 °F 31.4 °F 35.6 °F 93% 29.91 in 6.0 mi North 8.1 mph - N/A   Overcast
8:55 AM 39.2 °F 31.6 °F 35.6 °F 87% 29.92 in 6.0 mi NNW 12.7 mph - N/A   Overcast
9:15 AM 39.2 °F 32.5 °F 35.6 °F 87% 29.93 in 7.0 mi NW 10.4 mph - N/A   Overcast
9:35 AM 39.2 °F 33.0 °F 35.6 °F 87% 29.93 in 8.0 mi NW 9.2 mph - N/A   Overcast
9:55 AM 39.2 °F 31.6 °F 35.6 °F 87% 29.94 in 10.0 mi NNW 12.7 mph - N/A   Overcast
10:15 AM 39.2 °F 32.0 °F 35.6 °F 87% 29.95 in 10.0 mi NNW 11.5 mph - N/A   Overcast
10:35 AM 41.0 °F 35.2 °F 33.8 °F 76% 29.96 in 10.0 mi NNW 9.2 mph 16.1 mph N/A   Overcast
10:55 AM 41.0 °F 35.8 °F 33.8 °F 76% 29.97 in 10.0 mi NW 8.1 mph - N/A   Overcast
11:15 AM 39.2 °F 33.0 °F 33.8 °F 81% 29.97 in 10.0 mi NNW 9.2 mph - N/A   Overcast
11:35 AM 41.0 °F 35.2 °F 33.8 °F 76% 29.97 in 10.0 mi NNW 9.2 mph - N/A   Overcast
11:55 AM 41.0 °F 36.4 °F 33.8 °F 76% 29.97 in 10.0 mi NW 6.9 mph - N/A   Overcast
12:35 PM 42.8 °F 37.0 °F 33.8 °F 70% 29.97 in 10.0 mi NW 10.4 mph - N/A   Overcast
12:55 PM 41.0 °F 35.2 °F 33.8 °F 76% 29.98 in 10.0 mi NW 9.2 mph - N/A   Overcast
1:15 PM 41.0 °F 35.8 °F 32.0 °F 70% 29.98 in 10.0 mi NW 8.1 mph - N/A   Overcast
1:35 PM 41.0 °F 34.7 °F 32.0 °F 70% 29.99 in 10.0 mi NW 10.4 mph - N/A   Overcast
1:55 PM 41.0 °F 34.7 °F 30.2 °F 65% 29.99 in 10.0 mi NW 10.4 mph - N/A   Overcast
2:15 PM 41.0 °F 35.2 °F 30.2 °F 65% 30.00 in 10.0 mi NW 9.2 mph - N/A   Overcast
2:35 PM 41.0 °F 34.7 °F 30.2 °F 65% 30.00 in 10.0 mi WNW 10.4 mph - N/A   Overcast
2:55 PM 41.0 °F 34.3 °F 28.4 °F 61% 30.01 in 10.0 mi NW 11.5 mph 16.1 mph N/A   Overcast
3:15 PM 41.0 °F 34.7 °F 28.4 °F 61% 30.02 in 10.0 mi WNW 10.4 mph - N/A   Overcast
3:35 PM 41.0 °F 35.2 °F 28.4 °F 61% 30.03 in 10.0 mi NW 9.2 mph - N/A   Overcast
3:55 PM 41.0 °F 35.8 °F 26.6 °F 57% 30.03 in 10.0 mi NW 8.1 mph - N/A   Overcast
4:15 PM 41.0 °F 33.9 °F 26.6 °F 57% 30.04 in 10.0 mi NW 12.7 mph - N/A   Overcast
4:35 PM 41.0 °F 33.5 °F 28.4 °F 61% 30.05 in 10.0 mi NW 13.8 mph 18.4 mph N/A   Overcast
4:55 PM 39.2 °F 32.5 °F 28.4 °F 65% 30.06 in 10.0 mi NW 10.4 mph 17.3 mph N/A   Overcast
5:15 PM 39.2 °F 30.8 °F 28.4 °F 65% 30.06 in 10.0 mi NW 15.0 mph 19.6 mph N/A   Overcast
5:35 PM 39.2 °F 30.5 °F 28.4 °F 65% 30.07 in 10.0 mi NNW 16.1 mph 20.7 mph N/A   Overcast
5:55 PM 39.2 °F 31.2 °F 28.4 °F 65% 30.08 in 10.0 mi NNW 13.8 mph - N/A   Overcast
6:15 PM 39.2 °F 30.5 °F 28.4 °F 65% 30.08 in 10.0 mi NNW 16.1 mph - N/A   Overcast
6:35 PM 39.2 °F 30.5 °F 26.6 °F 61% 30.09 in 10.0 mi NNW 16.1 mph 21.9 mph N/A   Overcast
6:55 PM 39.2 °F 30.5 °F 26.6 °F 61% 30.10 in 10.0 mi NNW 16.1 mph 21.9 mph N/A   Overcast
7:15 PM 37.4 °F 29.3 °F 28.4 °F 70% 30.10 in 10.0 mi NNW 12.7 mph - N/A   Overcast
7:35 PM 37.4 °F 28.9 °F 26.6 °F 65% 30.11 in 10.0 mi NNW 13.8 mph 19.6 mph N/A   Overcast
7:55 PM 37.4 °F 28.9 °F 26.6 °F 65% 30.11 in 10.0 mi NNW 13.8 mph - N/A   Overcast
8:15 PM 37.4 °F 28.9 °F 26.6 °F 65% 30.11 in 10.0 mi NW 13.8 mph - N/A   Overcast
8:35 PM 37.4 °F 29.8 °F 26.6 °F 65% 30.12 in 10.0 mi NNW 11.5 mph - N/A   Overcast
8:55 PM 37.4 °F 29.3 °F 26.6 °F 65% 30.13 in 10.0 mi NNW 12.7 mph - N/A   Overcast
9:15 PM 37.4 °F 29.8 °F 26.6 °F 65% 30.13 in 10.0 mi NW 11.5 mph - N/A   Overcast
9:35 PM 37.4 °F 29.8 °F 26.6 °F 65% 30.13 in 10.0 mi NW 11.5 mph - N/A   Overcast
9:55 PM 37.4 °F 29.3 °F 26.6 °F 65% 30.13 in 10.0 mi NW 12.7 mph - N/A   Overcast
10:15 PM 35.6 °F 28.0 °F 26.6 °F 70% 30.14 in 10.0 mi NW 10.4 mph 16.1 mph N/A   Overcast
10:35 PM 35.6 °F 28.6 °F 26.6 °F 70% 30.14 in 10.0 mi NW 9.2 mph - N/A   Mostly Cloudy
10:55 PM 35.6 °F 28.6 °F 26.6 °F 70% 30.15 in 10.0 mi NW 9.2 mph - N/A   Partly Cloudy
11:15 PM 35.6 °F 29.9 °F 24.8 °F 65% 30.15 in 10.0 mi NW 6.9 mph - N/A   Clear
11:35 PM 35.6 °F 29.2 °F 24.8 °F 65% 30.15 in 10.0 mi NW 8.1 mph - N/A   Clear
11:55 PM 35.6 °F 27.5 °F 24.8 °F 65% 30.15 in 10.0 mi NW 11.5 mph 16.1 mph N/A   Clear